Regional Weather Roundup
Issued by NWS

Home | Current Version | Previous Version | Graphics & Text | Print | Product List | Glossary On
Versions: 1 2 3 4 5 6 7 8 9 10 11 12 13 14 15 16 17 18 19 20 21 22 23 24 25 26 27 28 29 30 31 32 33 34 35 36 37 38 39 40 41 42 43 44 45 46 47 48 49 50
000
ASUS43 KLMK 171610
RWRKY
KENTUCKY REGIONAL WEATHER ROUNDUP
NATIONAL WEATHER SERVICE LOUISVILLE KY
1100 AM EST TUE JAN 17 2017

NOTE "FAIR" INDICATES FEW OR NO CLOUDS BELOW 12,000 FEET
WITH NO SIGNIFICANT WEATHER AND/OR OBSTRUCTIONS TO VISIBILITY.

KYZ001>023-026-027-061>063-070>075-171700-
WESTERN AND SOUTH CENTRAL KENTUCKY

CITY           SKY/WX    TMP DP  RH WIND       PRES   REMARKS
PADUCAH        PTSUNNY   49  41  74 SW10      30.05R
HENDERSON      CLOUDY    50  45  81 W9        30.02R
OWENSBORO      CLOUDY    54  49  83 NW12      30.01R
HOPKINSVILLE   CLOUDY    59  56  90 SW18      30.04R
BOWLING GREEN  CLOUDY    64  59  83 SW14G21   30.02R
GLASGOW        CLOUDY    63  63 100 SW10      30.01S
$$

KYZ024-025-028>034-038-045-046-053-171700-
NORTH CENTRAL KENTUCKY

CITY           SKY/WX    TMP DP  RH WIND       PRES   REMARKS
LOUISVILLE/SDF PTSUNNY   63  55  75 W17       29.95R
LOUISVILLE/LOU CLOUDY    63  56  78 W13       29.95R
FORT KNOX      MOSUNNY   62  57  84 SW16G25   29.95R
$$

KYZ035>037-039>044-047>052-055>060-089>105-171700-
NORTHEAST KENTUCKY

CITY           SKY/WX    TMP DP  RH WIND       PRES   REMARKS
LEXINGTON      CLOUDY    63  58  83 SW18      29.97S
COVINGTON      PTSUNNY   63  57  81 SW15G22   29.91R
FRANKFORT      CLOUDY    63  57  81 SW15G22   29.95R
$$

KYZ054-064>069-076>088-106>120-171700-
SOUTHEAST KENTUCKY

CITY           SKY/WX    TMP DP  RH WIND       PRES   REMARKS
JACKSON        CLOUDY    60  55  83 VRB7G20   30.03R
LONDON         LGT RAIN  61  54  77 SW9G21    30.06R
SOMERSET       RAIN      57  57 100 S9        30.05F
MIDDLESBORO    LGT RAIN  59  56  89 SW7G16    30.11S
MONTICELLO     LGT RAIN  61  59  93 VRB3      30.06S
$$





USA.gov is the U.S. government's official web portal to all federal, state and local government web resources and services.